Regional Weather Roundup
Issued by NWS

Home | Current Version | Previous Version | Graphics & Text | Print | Product List | Glossary On
Versions: 1 2 3 4 5 6 7 8 9 10 11 12 13 14 15 16 17 18 19 20 21 22 23 24 25 26 27 28 29 30 31 32 33 34 35 36 37 38 39 40 41 42 43 44 45 46 47 48 49 50
000
ASUS43 KMPX 242001
RWRMN
WEATHER ROUNDUP FOR MINNESOTA
NATIONAL WEATHER SERVICE TWIN CITIES/CHANHASSEN MN
300 PM CDT THU JUL 24 2014


NOTE: "FAIR" INDICATES FEW OR NO CLOUDS BELOW 12,000 FEET WITH NO
SIGNIFICANT WEATHER AND/OR OBSTRUCTIONS TO VISIBILITY. N/A MEANS
CURRENT SKY AND/OR WEATHER CONDITIONS ARE NOT AVAILABLE.

MNZ060>063-068>070-242100-
   Twin Cities Metro

CITY           SKY/WX    TMP DP  RH WIND       PRES   REMARKS
TWIN CITIES    PTSUNNY   81  54  39 S9        30.06R
ST PAUL        MOSUNNY   79  56  45 SW10      30.06R
CRYSTAL        PTSUNNY   81  56  42 SW8       30.05R
BLAINE         CLOUDY    81  55  41 S6        30.06R
LAKEVILLE      MOSUNNY   79  57  47 S9        30.06R
EDEN PRAIRIE   MOSUNNY   79  57  46 SW3       30.05R
SOUTH ST PAUL  PTSUNNY   80  54  39 S8        30.06R
LAKE ELMO      PTSUNNY   77  59  53 S8        30.08R
$$
MNZ001>005-007-008-013>017-022>024-027-028-242100-
   Northwest Minnesota

CITY           SKY/WX    TMP DP  RH WIND       PRES   REMARKS
BEMIDJI        CLOUDY    73  58  59 SE15      29.95F
HALLOCK        CLOUDY    75  63  64 SE7       29.91S
ROSEAU         PTSUNNY   73  64  73 E6        29.92S
WARROAD        PTSUNNY   72  63  73 E10       29.92F
THIEF RVR FALL CLOUDY    73  61  64 SE16G24   29.90R
CROOKSTON      CLOUDY    75  61  60 S20G30    29.89R
FOSSTON        CLOUDY    73  61  64 SE13      29.92R
DETROIT LAKES  CLOUDY    70  55  60 SE13G23   29.92F
MOORHEAD       CLOUDY    72  63  73 S8        29.91R
PARK RAPIDS    CLOUDY    73  55  53 SE12      29.96F
$$
MNZ006-009>011-018-025>026-242100-
   North Central Minnesota

CITY           SKY/WX    TMP DP  RH WIND       PRES   REMARKS
BAUDETTE       PTSUNNY   76  59  55 E8        29.95F
FLAG ISLAND    PTSUNNY   72  55  56 E5        29.92F
INTL FALLS     PTSUNNY   75  53  46 SE6       29.98F
WASKISH        PTSUNNY   75  61  60 CALM      29.95F
BIG FORK       PTSUNNY   75  55  50 SW2       30.01F
LONGVILLE      CLOUDY    72  57  60 S8        30.01F
GRAND RAPIDS   PTSUNNY   73  52  46 S10       30.03F
CRANE LAKE     PTSUNNY   72  52  49 CALM      30.04F
ORR            PTSUNNY   75  48  38 W5        30.00F
COOK           PTSUNNY   75  52  43 W5        30.02F
$$
MNZ012-019>021-037-242100-
   Northeast Minnesota

CITY           SKY/WX    TMP DP  RH WIND       PRES   REMARKS
DULUTH         PTSUNNY   76  54  46 SW10      30.05S
ELY            MOSUNNY   75  52  43 SW10      30.04F
HIBBING        PTSUNNY   77  51  40 W6        30.03F
EVELETH        PTSUNNY   77  54  44 SW6       30.05F
DULUTH HARBOR  PTSUNNY   66  61  82 NE7       30.04F
TWO HARBORS    PTSUNNY   73  57  56 S8        30.03S
SILVER BAY     MOSUNNY   73  59  60 S9        30.04S
GRAND MARAIS     N/A     56  50  80 SW5       30.04F
G MARAIS ARPRT SUNNY     66  48  52 S10G17    30.08S
$$
MNZ029>031-032-039>041-046>048-054>057-064-242100-
   West Central Minnesota

CITY           SKY/WX    TMP DP  RH WIND       PRES   REMARKS
FERGUS FALLS   CLOUDY    64  57  77 SE24G36   29.79F
WHEATON        CLOUDY    63  61  94 SE23G29   29.90F
MORRIS         LGT RAIN  64  63  94 NE13      30.01F
ALEXANDRIA     RAIN      64  61  90 SE12      30.08F FOG
ELBOW LAKE     LGT RAIN  62  60  92 SE38G49   29.71F
WADENA         CLOUDY    66  55  68 SE20G25   29.90F
GLENWOOD       HVY RAIN  64  63  94 E8        30.09F
APPLETON       CLOUDY    66  63  88 SE13G23   29.98F
BENSON         RAIN      64  63  94 SE18G24   29.95F
ORTONVILLE     LGT RAIN  66  63  88 SE9       29.98F
MADISON        LGT RAIN  70  66  88 SE10      30.06F
WILLMAR        HVY RAIN  68  64  88 N10       30.16R
$$
MNZ033>034-036-042>043-049>051-058-059-242100-
   Central Minnesota

CITY           SKY/WX    TMP DP  RH WIND       PRES   REMARKS
ST CLOUD       CLOUDY    80  54  40 W9        30.10R
SAUK CENTRE    LGT RAIN  67  59  75 SW8       30.12F
PAYNESVILLE    LGT RAIN  67  60  78 SW9       30.14R
AITKIN         CLOUDY    77  57  50 S5        30.04F
PINE RIVER     CLOUDY    72  57  60 SE12      30.02F
BRAINERD       CLOUDY    74  52  46 SW10      30.06S
STAPLES        CLOUDY    72  54  53 S14G22    29.94F
LONG PRAIRIE   PTSUNNY   70  57  64 S5        30.10F
LITTLE FALLS   CLOUDY    73  54  49 SW7       30.11R
LITCHFIELD     CLOUDY    77  59  53 NW6       30.13R
BUFFALO        PTSUNNY   77  56  48 SW3       30.09R
MAPLE LAKE     CLOUDY    78  60  54 SW5       30.10R
$$
MNZ037-044-045-052-053-242100-
   East Central Minnesota

CITY           SKY/WX    TMP DP  RH WIND       PRES   REMARKS
PRINCETON      PTSUNNY   79  55  44 SW6       30.08R
MORA           PTSUNNY   75  54  46 W7        30.08R
CAMBRIDGE      PTSUNNY   82  61  47 SW7       30.06R
RUSH CITY      PTSUNNY   78  55  44 SW6       30.07R
MOOSE LAKE     PTSUNNY   77  54  44 SW9       30.04S
HINCKLEY       FAIR      77  55  47 S8        30.07R
CLOQUET        PTSUNNY   77  50  38 SW9G17    30.05F
MCGREGOR       PTSUNNY   75  54  46 SW8       30.06F
$$
MNZ071>073-080-081-089-090-097-098-242100-
   Southwest Minnesota

CITY           SKY/WX    TMP DP  RH WIND       PRES   REMARKS
MONTEVIDEO     RAIN      66  66 100 E12       30.09F
GRANITE FALLS  CLOUDY    68  63  83 NW8       30.16R
CANBY          TSTM      66  64  91 SE6       30.09F
MARSHALL       CLOUDY    66  61  82 N13       30.14R THUNDER
REDWOOD FALLS  RAIN      73  62  68 CALM      30.08R
OLIVIA         LGT RAIN  72  63  73 W5        30.11R
PIPESTONE      CLOUDY    63  61  94 S18       29.96F
WINDOM         TSTM      70  61  73 SW6       30.12
WORTHINGTON    CLOUDY    64  57  77 SE9       30.08R THUNDER
JACKSON        CLOUDY    70  57  64 W6        30.12R THUNDER
TRACY          CLOUDY    67  63  85 NW10      30.09F
SLAYTON        TSTM      64  62  90 SE6       30.01F
$$
MNZ065>067-074>077-082>085-091>093-242100-
   South Central Minnesota

CITY           SKY/WX    TMP DP  RH WIND       PRES   REMARKS
MANKATO        MOSUNNY   79  57  47 S8        30.05R
NEW ULM        PTSUNNY   77  61  57 SW9       30.09R
ST JAMES       MOSUNNY   75  57  53 S6        30.09R
FAIRMONT       PTSUNNY   75  55  50 S13G20    30.05R
GLENCOE        PTSUNNY   79  56  44 SW3       30.08R THUNDER
FARIBAULT      MOSUNNY   82  48  30 SE6       30.07R
OWATONNA       MOSUNNY   81  55  41 S8        30.07R
WASECA         MOSUNNY   77  54  44 S7        30.08R
ALBERT LEA     PTSUNNY   81  55  41 S8        30.06R
$$
MNZ078>079-086>088-094>096-242100-
   Southeast Minnesota

CITY           SKY/WX    TMP DP  RH WIND       PRES   REMARKS
ROCHESTER      MOSUNNY   77  57  50 S9        30.06F
RED WING       PTSUNNY   82  52  34 S9        30.04S
STANTON        MOSUNNY   81  56  42 SW8       30.05R
DODGE CENTER   MOSUNNY   77  57  50 S10       30.08R
WINONA         PTSUNNY   77  55  47 CALM      30.05F
AUSTIN         MOSUNNY   77  57  50 SE8       30.05F
PRESTON        MOSUNNY   77  60  55 S8        30.08R
$$
ABBREVIATIONS USED IN REMARKS
   TC - TEMPERATURES IN CELSIUS
  WCI - WIND CHILL INDEX
   HX - HEAT INDEX
  VSB - VISIBILITY
$$



USA.gov is the U.S. government's official web portal to all federal, state and local government web resources and services.